[[{"header":{"parameterUnit":"m.s-1","parameterCategory":1,"la1":30.2991,"la2":30.254,"lo1":-89.0895,"lo2":-89.0444,"dy":0.0017,"dx":0.0017,"nx":28,"ny":28,"refTime":"2025-03-30T09:00:00:Z","depth":0,"parameterNumber":2,"parameterNumberName":"U-component_of_WINDS"},"data":[0,0,0,0,0,0,0,0,0,0,0,0,0,0,0,0,0,0,0,0,0,0,0,0,0,0,0,0,0,0,0,0,0,0,0,0,0,0,0,0,0,0,0,0,0,0,0,0,0,0,0,0,0,0,0,0,0,0,-3.371,-3.371,0,-3.3776,-3.3777,-3.3777,-3.3777,-3.3776,-3.3776,-3.3775,-3.3842,-3.3845,-3.3847,0,0,0,0,0,0,0,0,0,0,0,0,0,-3.3583,-3.3585,-3.3709,-3.371,-3.3711,-3.3776,-3.3777,-3.3778,-3.3777,-3.3776,-3.3775,-3.3774,-3.3842,-3.3845,-3.3848,0,0,0,0,0,0,0,0,0,0,0,0,0,-3.3643,-3.3586,-3.3709,-3.3719,-3.372,-3.3776,-3.3777,-3.3778,-3.3778,-3.3776,-3.3775,-3.3774,-3.3841,-3.3844,-3.3848,-3.3898,0,0,-3.386,-3.3862,0,0,0,0,0,0,0,0,-3.3639,-3.3647,-3.3717,-3.3718,-3.372,-3.3767,-3.3757,-3.3818,-3.3778,-3.3756,-3.3775,-3.3773,-3.3818,-3.3824,-3.3839,-3.3901,-3.3904,-3.386,-3.3863,-3.3864,-3.3866,0,0,0,0,0,0,0,-3.3635,-3.3644,-3.3736,-3.3718,-3.372,-3.372,-3.3727,-3.3769,-3.3794,-3.3758,-3.3758,-3.3766,-3.3819,-3.3835,-3.3841,-3.3905,-3.386,-3.3864,-3.3866,-3.3868,-3.4012,-3.4013,0,0,0,0,0,0,-3.3629,-3.3641,-3.3734,-3.3738,-3.3676,-3.3723,-3.3731,-3.3753,-3.3793,-3.3798,-3.3767,-3.3766,-3.3829,-3.3836,-3.3843,-3.3904,-3.3864,-3.3868,-3.387,-3.401,-3.4012,-3.4014,0,0,0,0,0,0,-3.3626,-3.3637,-3.3731,-3.3689,-3.3701,-3.3727,-3.3752,-3.3755,-3.3772,-3.38,-3.3804,-3.3779,-3.3829,-3.3838,-3.3885,-3.3906,-3.387,-3.3873,-3.4009,-3.4011,-3.4013,-3.4025,0,0,0,0,0,0,-3.3623,-3.3636,-3.3655,-3.369,-3.3704,-3.3771,-3.3753,-3.3757,-3.3778,-3.3777,-3.3813,-3.3817,-3.3828,-3.3879,-3.3888,-3.3911,-3.3876,-3.4007,-3.401,-3.4012,-3.4023,-3.4028,-3.4032,0,0,0,0,0,-3.3618,-3.3656,-3.3656,-3.3667,-3.3728,-3.3772,-3.378,-3.3792,-3.378,-3.3799,-3.3818,-3.3816,-3.3903,-3.3883,-3.3894,-3.3918,-3.4005,-3.4009,-3.4012,-3.4021,-3.4027,-3.4031,0,0,0,0,0,0,-3.3623,-3.3661,-3.3661,-3.3711,-3.3739,-3.3772,-3.3796,-3.3798,-3.3829,-3.3826,-3.3841,-3.3849,-3.3895,-3.3912,-3.389,-3.3969,-3.3953,-3.3958,-3.3956,-3.3961,-3.3965,-3.3959,-3.388,0,0,0,0,0,-3.363,-3.3662,-3.3694,-3.3735,-3.3749,-3.3771,-3.379,-3.3798,-3.3826,-3.3838,-3.3859,-3.3887,-3.3921,-3.3942,-3.3975,-3.4026,-3.4034,-3.4048,-3.4053,-3.4056,-3.406,-3.4088,-3.4095,-3.4025,-3.4025,-3.4025,0,0,-3.3644,-3.3669,-3.3689,-3.3737,-3.3759,-3.3792,-3.378,-3.3816,-3.3841,-3.3843,-3.3888,-3.3905,-3.3938,-3.3987,-3.401,-3.4002,-3.4082,-3.406,-3.4063,-3.4065,-3.4092,-3.4099,-3.4105,-3.4027,-3.4027,-3.4026,0,0,-3.3687,-3.3709,-3.3746,-3.3768,-3.3802,-3.3816,-3.3825,-3.3859,-3.3871,-3.3916,-3.3919,-3.3949,-3.4007,-3.4029,-3.4048,-3.4102,-3.4101,-3.4112,-3.4134,-3.4161,-3.4166,-3.4171,-3.4189,-3.4196,-3.4117,-3.4117,-3.4117,0,-3.37,-3.375,-3.3764,-3.38,-3.3821,-3.3826,-3.3863,-3.3884,-3.3927,-3.3941,-3.3933,-3.4005,-3.4028,-3.4082,-3.4095,-3.4111,-3.4121,-3.4107,-3.4165,-3.417,-3.4175,-3.4192,-3.4198,-3.4118,-3.4118,-3.4118,-3.4118,0,-3.3765,-3.38,-3.3825,-3.3866,-3.3891,-3.3927,-3.3947,-3.397,-3.3976,-3.3991,-3.4038,-3.4065,-3.4103,-3.4117,-3.4123,-3.4173,-3.4167,-3.4162,-3.4145,-3.4182,-3.4198,-3.4205,-3.4119,-3.4119,-3.4119,-3.4118,0,0,-3.3809,-3.3859,-3.3868,-3.3886,-3.3925,-3.3952,-3.3989,-3.4027,-3.4046,-3.4076,-3.4107,-3.4156,-3.4152,-3.4174,-3.4183,-3.4207,-3.4247,-3.4199,-3.42,-3.4205,-3.4302,-3.4304,-3.4311,-3.4248,-3.4249,-3.425,-3.4298,0,-3.3855,-3.392,-3.3935,-3.3991,-3.4023,-3.4029,-3.4062,-3.4089,-3.4105,-3.4135,-3.4153,-3.4187,-3.4179,-3.4192,-3.4217,-3.4236,-3.4266,-3.4234,-3.4275,-3.4277,-3.4265,-3.432,-3.4322,-3.4366,-3.4305,-3.4306,-3.4307,0,-3.3916,-3.3947,-3.4006,-3.4041,-3.4055,-3.4084,-3.4119,-3.4148,-3.418,-3.419,-3.4215,-3.4222,-3.4261,-3.4245,-3.4298,-3.4276,-3.4295,-3.4307,-3.4309,-3.4312,-3.4292,-3.4322,-3.4381,-3.4387,-3.4317,-3.4317,-3.4316,0,-3.394,-3.3998,-3.404,-3.4057,-3.4098,-3.4118,-3.4136,-3.4167,-3.4188,-3.422,-3.4234,-3.427,-3.4289,-3.4317,-3.4334,-3.4321,-3.4386,-3.4372,-3.4395,-3.4395,-3.4406,-3.4405,-3.4467,-3.4422,-3.4422,-3.4422,-3.4422,0,-3.3988,-3.4024,-3.4052,-3.4078,-3.4118,-3.4136,-3.4175,-3.4194,-3.4221,-3.4251,-3.4259,-3.4287,-3.4309,-3.434,-3.4354,-3.4395,-3.4405,-3.4414,-3.4416,-3.4411,-3.441,-3.4422,-3.4418,-3.4424,-3.4423,-3.4423,-3.4423,0,-3.4021,-3.4042,-3.4088,-3.4124,-3.4135,-3.4163,-3.4193,-3.4219,-3.4237,-3.4274,-3.4284,-3.4311,-3.4348,-3.4369,-3.4415,-3.4425,-3.4471,-3.4473,-3.446,-3.4461,-3.4483,-3.448,-3.4553,-3.4563,-3.4513,-3.4513,-3.4514,0,-3.4049,-3.4076,-3.4116,-3.4136,-3.4155,-3.4188,-3.4211,-3.423,-3.4252,-3.4291,-3.4312,-3.435,-3.4381,-3.444,-3.4464,-3.45,-3.4502,-3.4525,-3.4507,-3.4501,-3.45,-3.4497,-3.45,-3.4527,-3.4528,-3.4528,-3.4528,0,-3.4095,-3.4105,-3.4136,-3.4172,-3.4199,-3.4228,-3.4257,-3.4273,-3.4297,-3.4323,-3.4361,-3.4385,-3.4433,-3.447,-3.4508,-3.4528,-3.4532,-3.4535,-3.4541,-3.4535,-3.4526,-3.453,-3.4466,-3.4532,-3.4532,-3.4531,-3.4531,-3.4531,-3.4126,-3.415,-3.4182,-3.4217,-3.4241,-3.4268,-3.4294,-3.4315,-3.4347,-3.4387,-3.4397,-3.4437,-3.4469,-3.452,-3.4541,-3.4573,-3.4568,-3.4579,-3.4581,-3.4583,-3.4583,-3.4523,-3.458,-3.458,-3.458,-3.458,-3.458,0,-3.4171,-3.4192,-3.4225,-3.4265,-3.4293,-3.4296,-3.4328,-3.4351,-3.4386,-3.4416,-3.4446,-3.449,-3.4527,-3.4555,-3.4592,-3.4612,-3.4615,-3.4621,-3.4619,-3.4623,-3.4586,-3.4575,-3.4618,-3.4618,-3.4618,-3.4618,-3.4618,-3.4618,-3.4198,-3.424,-3.4253,-3.4307,-3.4328,-3.4367,-3.4385,-3.441,-3.4434,-3.4482,-3.4513,-3.4531,-3.456,-3.4599,-3.4633,-3.4641,-3.4653,-3.4659,-3.4666,-3.463,-3.4626,-3.4622,-3.4612,-3.4662,-3.4662,-3.4701,-3.4701,-3.4701]},{"header":{"parameterUnit":"m.s-1","parameterCategory":1,"la1":30.2991,"la2":30.254,"lo1":-89.0895,"lo2":-89.0444,"dy":0.0017,"dx":0.0017,"nx":28,"ny":28,"refTime":"2025-03-30T09:00:00:Z","depth":0,"parameterNumber":3,"parameterNumberName":"V-component_of_WINDS"},"data":[0,0,0,0,0,0,0,0,0,0,0,0,0,0,0,0,0,0,0,0,0,0,0,0,0,0,0,0,0,0,0,0,0,0,0,0,0,0,0,0,0,0,0,0,0,0,0,0,0,0,0,0,0,0,0,0,0,0,3.5153,3.5154,0,3.5243,3.5244,3.5245,3.5257,3.5256,3.5255,3.5254,3.5343,3.5346,3.5349,0,0,0,0,0,0,0,0,0,0,0,0,0,3.4991,3.4994,3.5153,3.5154,3.5155,3.5243,3.5244,3.5245,3.5257,3.5256,3.5255,3.5254,3.5342,3.5346,3.5349,0,0,0,0,0,0,0,0,0,0,0,0,0,3.5069,3.4995,3.5153,3.5172,3.5174,3.5243,3.5244,3.5246,3.5257,3.5256,3.5254,3.5253,3.5341,3.5345,3.535,3.5405,0,0,3.5364,3.5366,0,0,0,0,0,0,0,0,3.5065,3.5075,3.5168,3.517,3.5173,3.5237,3.522,3.5299,3.5257,3.5225,3.5254,3.5253,3.5309,3.5316,3.5336,3.5409,3.5413,3.5365,3.5368,3.537,3.5371,0,0,0,0,0,0,0,3.5059,3.5071,3.5188,3.5169,3.5173,3.5176,3.5185,3.5235,3.5273,3.5228,3.5229,3.524,3.531,3.5331,3.5338,3.5414,3.5365,3.5369,3.5372,3.5374,3.5543,3.5544,0,0,0,0,0,0,3.5051,3.5067,3.5186,3.5191,3.5115,3.518,3.519,3.5218,3.5272,3.528,3.5241,3.524,3.5323,3.5332,3.5341,3.5412,3.537,3.5374,3.5377,3.5541,3.5543,3.5545,0,0,0,0,0,0,3.5047,3.5061,3.5182,3.5129,3.5145,3.5184,3.5215,3.522,3.5242,3.5282,3.5289,3.5255,3.5323,3.5334,3.539,3.5415,3.5376,3.5381,3.5539,3.5542,3.5544,3.5553,0,0,0,0,0,0,3.5042,3.506,3.5081,3.513,3.5148,3.523,3.5216,3.5223,3.525,3.525,3.5298,3.5304,3.5323,3.5383,3.5395,3.5421,3.5384,3.5537,3.554,3.5543,3.5551,3.5556,3.556,0,0,0,0,0,3.5037,3.5078,3.5082,3.5096,3.5175,3.5231,3.5241,3.5263,3.5252,3.5274,3.5301,3.5303,3.5411,3.5389,3.5402,3.543,3.5535,3.5539,3.5543,3.5549,3.5555,3.556,0,0,0,0,0,0,3.5028,3.5084,3.5089,3.5148,3.5185,3.5233,3.5261,3.5268,3.5307,3.5305,3.5329,3.534,3.5396,3.5418,3.5393,3.5489,3.5472,3.5479,3.5472,3.5478,3.5482,3.5476,3.5388,0,0,0,0,0,3.5033,3.5075,3.5122,3.5169,3.5188,3.5221,3.5246,3.526,3.5299,3.5314,3.5345,3.5382,3.5426,3.5453,3.5494,3.5554,3.5566,3.558,3.5585,3.5588,3.5594,3.5632,3.5639,3.5557,3.5557,3.5557,0,0,3.5044,3.508,3.5104,3.5168,3.5198,3.5242,3.5234,3.5279,3.5312,3.5321,3.5377,3.5401,3.5445,3.5504,3.5532,3.5525,3.562,3.5593,3.5596,3.5599,3.5636,3.5644,3.5651,3.5559,3.5559,3.5559,0,0,3.5086,3.5116,3.5161,3.5193,3.524,3.5263,3.5274,3.5323,3.534,3.5397,3.5406,3.5445,3.5517,3.555,3.5575,3.5635,3.5639,3.5648,3.5671,3.5708,3.5714,3.572,3.5744,3.5752,3.5653,3.5653,3.5653,0,3.5092,3.5158,3.5182,3.5229,3.5258,3.5272,3.5318,3.5347,3.5405,3.5425,3.5417,3.5511,3.5541,3.561,3.5625,3.5645,3.5659,3.5642,3.5711,3.5717,3.5723,3.5747,3.5755,3.5654,3.5654,3.5654,3.5653,0,3.5166,3.5212,3.5242,3.5301,3.5334,3.5379,3.5412,3.5442,3.5454,3.5478,3.5538,3.5575,3.5627,3.5644,3.5654,3.5716,3.5711,3.5706,3.569,3.5732,3.5754,3.5763,3.5655,3.5655,3.5654,3.5654,0,0,3.5202,3.5278,3.5289,3.5318,3.5373,3.5409,3.5457,3.5509,3.5536,3.5576,3.5618,3.5682,3.568,3.5709,3.5724,3.5756,3.5805,3.5748,3.575,3.576,3.5879,3.5883,3.5893,3.5809,3.581,3.5812,3.5877,0,3.5253,3.5339,3.5365,3.5438,3.5483,3.5499,3.5541,3.558,3.5605,3.5647,3.5674,3.572,3.5712,3.573,3.5763,3.5792,3.583,3.5788,3.5849,3.5851,3.5839,3.5904,3.5908,3.5967,3.5885,3.5887,3.5888,0,3.5322,3.5367,3.5446,3.55,3.552,3.5557,3.561,3.5649,3.5695,3.5711,3.5747,3.576,3.5812,3.5794,3.5867,3.5838,3.5865,3.5884,3.5887,3.5894,3.5872,3.5915,3.5986,3.5996,3.5901,3.59,3.5899,0,3.5344,3.5424,3.5483,3.5507,3.5571,3.5598,3.5625,3.567,3.5702,3.5747,3.5768,3.5818,3.5846,3.5885,3.5913,3.5896,3.5985,3.5968,3.6001,3.6001,3.6019,3.6018,3.6098,3.6034,3.6034,3.6034,3.6034,0,3.5398,3.5446,3.5495,3.5531,3.5586,3.5616,3.567,3.5698,3.5739,3.5782,3.5797,3.5837,3.587,3.5915,3.5937,3.5997,3.6008,3.6024,3.6029,3.6023,3.6022,3.6042,3.6039,3.6036,3.6036,3.6035,3.6035,0,3.5432,3.5466,3.5531,3.5588,3.5604,3.5643,3.5692,3.5728,3.5755,3.581,3.5824,3.5866,3.592,3.5952,3.6019,3.6034,3.6101,3.6103,3.6086,3.6089,3.6122,3.6119,3.6218,3.6234,3.6158,3.6159,3.6159,0,3.5464,3.5502,3.5565,3.5596,3.5625,3.5674,3.5707,3.5739,3.5773,3.5831,3.5861,3.5917,3.5963,3.6049,3.6085,3.6138,3.6143,3.6174,3.6151,3.6145,3.6147,3.6145,3.615,3.6178,3.6179,3.6179,3.618,0,3.552,3.5537,3.5584,3.564,3.568,3.5724,3.5769,3.5793,3.5832,3.587,3.5927,3.5963,3.6034,3.609,3.6147,3.6176,3.6186,3.6187,3.6199,3.6193,3.6183,3.6192,3.6099,3.6185,3.6184,3.6184,3.6184,3.6183,3.5556,3.5592,3.5644,3.5698,3.5735,3.5778,3.5816,3.585,3.5898,3.596,3.5976,3.6036,3.6085,3.6163,3.6194,3.6242,3.6237,3.6252,3.6256,3.626,3.6263,3.6175,3.6252,3.6252,3.6252,3.6252,3.6252,0,3.5615,3.565,3.57,3.5763,3.5807,3.5814,3.5865,3.59,3.5954,3.5999,3.6046,3.6114,3.6169,3.6212,3.6269,3.63,3.6306,3.6314,3.6313,3.632,3.6262,3.6248,3.6309,3.6309,3.6308,3.6308,3.6308,3.6308,3.5651,3.5714,3.5737,3.5821,3.5855,3.5916,3.5945,3.5985,3.6022,3.6097,3.6144,3.6173,3.6218,3.628,3.6332,3.6343,3.6364,3.6372,3.6384,3.633,3.6324,3.6318,3.6305,3.6376,3.6376,3.6439,3.6439,3.644]}]]